sat.trackr.live / text

‹ back to catalog

STARLINK-35634

NORAD 66173 · 2025-240AD

PAYLOAD ACTIVE UNKNOWN

§ Identity

Operator
Country
US
Launch date
2025-10-25
Launch site
AFWTR
Launch vehicle
Mass (kg)
RCS (m²)

Purposes: comms

External: N2YO · Heavens-Above · Gunter

§ Orbital elements

Epoch: 2026-05-25T04:56:02.195808Z

Period
93.85 min
Inclination
53.1587°
Eccentricity
0.0001166
Mean motion
15.34407014 rev/d
Perigee alt
461.9 km
Apogee alt
463.5 km
Semi-major
6,840.8 km
B*
8.0955e-4
RAAN
66.6635°
Arg perigee
101.1611°
Mean anomaly
258.9522°
Rev number
3,371

§ Raw data

STARLINK-356341 66173U 25240AD  26145.20558097  .00027081  00000+0  80955-3 0  99972 66173  53.1587  66.6635 0001166 101.1611 258.9522 15.34407014 33717

JSON: /api/v1/satellites/66173 · /tle

For live sub-satellite position, see the globe view (requires WebGL).

§ Visibility from observer

Set your observer location to see the next 7 days of passes ≥ 10°. The values pass through the URL so the page stays shareable.

No JS? Fill the form by hand. The geolocation button needs JavaScript.